Ozark, AL

4:47 AM CDT on September 24, 2017 (GMT -0500)
Cairns Army Air Field

Weather History for KOZR - August, 2013

Change the Weather History Date:

Thursday, August 29, 2013

  Actual Average Record
Temperature  
Mean Temperature 79 °F -  
Max Temperature 90 °F 85 °F 99 °F (2011)
Min Temperature 68 °F 67 °F 66 °F (2001)
Cooling Degree Days 14    
Growing Degree Days 29 (Base 50)    
Moisture  
Dew Point 70 °F    
Average Humidity 76    
Maximum Humidity 96    
Minimum Humidity 54    
Precipitation  
Precipitation 0.00 in - - ()
Sea Level Pressure  
Sea Level Pressure 30.02 in    
Wind  
Wind Speed 4 mph (WNW)    
Max Wind Speed 10 mph    
Max Gust Speed -    
Visibility 10 miles    
Events      
Averages and records for this station are not official NWS values.
T = Trace of Precipitation, MM = Missing Value Source: NWS Daily Summary

Daily Weather History Graph

Daily Weather History Graph

Search for Another Location

Airport or City:

Trip Planner

Search our weather history database for the weather conditions in past years. The results will help you decide how hot, cold, wet, or windy it might be!

Date:

Astronomy

Aug. 29, 2013 Rise Set
Actual Time 6:17 AM CDT 7:09 PM CDT
Civil Twilight 5:52 AM CDT 7:34 PM CDT
Nautical Twilight 5:23 AM CDT 8:03 PM CDT
Astronomical Twilight 4:52 AM CDT 8:33 PM CDT
Moon 12:19 AM CDT (8/29) 2:26 PM CDT (8/29)
Length of Visible Light 13h 42m
Length of Day
12h 52m
Last Quarter, 38% of the Moon is Illuminated
Aug 29
Last Quarter
Sep 5
New
Sep 12
First Quarter
Sep 19
Full
Sep 26
Last Quarter

Hourly Weather History & Observations

Time (CDT) Temp. Heat Index Dew Point Humidity Pressure Visibility Wind Dir Wind Speed Gust Speed Precip Events Conditions
12:58 AM 71.6 °F - 69.3 °F 92% 30.04 in 10.0 mi WNW 2.3 mph - N/A   Clear
1:58 AM 70.0 °F - 68.5 °F 95% 30.03 in 10.0 mi NW 2.3 mph - N/A   Clear
2:58 AM 70.2 °F - 68.4 °F 94% 30.03 in 10.0 mi Calm Calm - N/A   Clear
3:58 AM 69.3 °F - 68.0 °F 96% 30.02 in 10.0 mi West 1.2 mph - N/A   Clear
4:58 AM 68.0 °F - 66.7 °F 96% 30.03 in 10.0 mi NW 2.3 mph - N/A   Clear
5:58 AM 68.4 °F - 66.6 °F 94% 30.04 in 10.0 mi NW 5.8 mph - N/A   Clear
6:58 AM 69.4 °F - 66.2 °F 89% 30.06 in 10.0 mi NW 2.3 mph - N/A   Clear
7:58 AM 72.9 °F - 67.6 °F 84% 30.07 in 10.0 mi WNW 3.5 mph - N/A   Clear
8:58 AM 77.9 °F - 70.0 °F 76% 30.07 in 10.0 mi WNW 4.6 mph - N/A   Clear
9:58 AM 82.9 °F 87.7 °F 71.6 °F 68% 30.07 in 10.0 mi Variable 4.6 mph - N/A   Clear
10:58 AM 85.6 °F 91.1 °F 71.1 °F 62% 30.06 in 10.0 mi West 10.4 mph - N/A   Clear
11:58 AM 87.6 °F 92.7 °F 70.3 °F 56% 30.05 in 10.0 mi NW 8.1 mph - N/A   Partly Cloudy
12:58 PM 87.6 °F 92.7 °F 70.3 °F 56% 30.03 in 10.0 mi NW 3.5 mph - N/A   Partly Cloudy
1:58 PM 88.3 °F 94.1 °F 70.9 °F 56% 30.01 in 10.0 mi West 5.8 mph - N/A   Partly Cloudy
2:58 PM 90.0 °F 96.4 °F 71.1 °F 54% 29.99 in 10.0 mi NW 4.6 mph - N/A   Partly Cloudy
3:58 PM 88.5 °F 94.9 °F 71.4 °F 57% 29.98 in 10.0 mi WNW 5.8 mph - N/A   Partly Cloudy
4:58 PM 89.4 °F 95.8 °F 71.2 °F 55% 29.97 in 10.0 mi West 5.8 mph - N/A   Clear
5:58 PM 87.6 °F 94.8 °F 72.7 °F 61% 29.97 in 10.0 mi WNW 5.8 mph - N/A   Clear
6:58 PM 84.0 °F 90.5 °F 73.4 °F 70% 29.97 in 10.0 mi WNW 4.6 mph - N/A   Clear
7:58 PM 81.0 °F 85.8 °F 73.0 °F 77% 29.98 in 10.0 mi WSW 3.5 mph - N/A   Clear
8:58 PM 80.1 °F 84.2 °F 72.9 °F 79% 29.99 in 10.0 mi WNW 3.5 mph - N/A   Clear
9:58 PM 78.4 °F - 72.9 °F 83% 29.99 in 10.0 mi WNW 4.6 mph - N/A   Clear
10:58 PM 77.5 °F - 72.7 °F 85% 29.98 in 10.0 mi WNW 4.6 mph - N/A   Clear
11:58 PM 76.8 °F - 72.3 °F 86% 29.98 in 10.0 mi Variable 2.3 mph - N/A   Clear